{"data":{"norad_id":52339,"epoch":"2026-09-20T04:00:03.000096Z","epoch_age_seconds":88285,"freshness":"FRESH","line1":"1 52339U 22045J   26263.16670139  .00006376  00000+0  19357-3 0  9996","line2":"2 52339  53.1613  53.0605 0001019  76.7957  23.2966 15.35394160  5835","mean_motion":15.3539416,"eccentricity":0.0001019,"inclination_deg":53.1613,"raan_deg":53.0605,"arg_perigee_deg":76.7957,"mean_anomaly_deg":23.2966,"bstar":0.00019357,"rev_number":583,"period_min":93.78699212976,"perigee_km":459.05320098575,"apogee_km":460.44676235262,"semimajor_km":6837.8869816692,"source":"CELESTRAK","updated_at":"2026-09-20T09:00:40.022370Z"}}